Regional Weather Roundup
Issued by NWS

Home | Current Version | Previous Version | Graphics & Text | Print | Product List | Glossary On
Versions: 1 2 3 4 5 6 7 8 9 10 11 12 13 14 15 16 17 18 19 20 21 22 23 24 25 26 27 28 29 30 31 32 33 34 35 36 37 38 39 40 41 42 43 44 45 46 47 48 49 50
000
ASUS43 KDMX 271603
RWRIA

WEATHER ROUNDUP FOR IOWA
NATIONAL WEATHER SERVICE DES MOINES IA
1100 AM CDT WED JUL 27 2016

NOTE: "FAIR" INDICATES FEW OR NO CLOUDS BELOW 12,000 FEET WITH NO
SIGNIFICANT WEATHER AND/OR OBSTRUCTIONS TO VISIBILITY.

* - THESE STATIONS ARE NOT NWS STATIONS...THUS NOT UNDER NWS
QUALITY CONTROL.  THEY ALSO DO NOT REPORT WEATHER SUCH
AS PRECIPITATION OR FOG.

IAZ001>003-012>014-020>022-031>034-043>046-271700-
   NORTHWEST IOWA

CITY           SKY/WX    TMP DP  RH WIND       PRES   REMARKS
CARROLL *      CLOUDY    72  68  88 CALM      30.02S
CHEROKEE *     CLOUDY    73  71  94 W3        30.00F
DENISON *      LGT RAIN  70  68  94 NE9       30.01R
LE MARS *      CLOUDY    81  70  69 SW7       30.01F HX  84
SHELDON *      PTSUNNY   77  70  78 SW10      29.99S
SIOUX CITY     CLOUDY    79  68  69 VRB3      30.00S HX  81
SPENCER        CLOUDY    77  68  73 SW12      30.00R
STORM LAKE *   CLOUDY    72  68  88 SW6       30.01F
$$

IAZ055>058-069>071-079>083-090>094-271700-
   SOUTHWEST IOWA

CITY           SKY/WX    TMP DP  RH WIND       PRES   REMARKS
ATLANTIC *     CLOUDY    77  70  78 S6        30.02S
CLARINDA *       N/A     79  70  73 MISG      30.05R HX  81
COUNCIL BLFS * CLOUDY    79  72  78 SW9       30.00F HX  82
CRESTON *      PTSUNNY   79  68  69 S8        30.05R HX  81
HARLAN  *      CLOUDY    77  72  83 S8        30.03F
LAMONI         CLOUDY    79  68  69 S3        30.02R HX  81
RED OAK *      PTSUNNY   79  72  78 SW7G13    30.03S HX  82
SHENANDOAH *   PTSUNNY   79  72  78 SW5       30.03S HX  82
$$

IAZ047>049-059>061-072>074-084-271700-
   CENTRAL IOWA

CITY           SKY/WX    TMP DP  RH WIND       PRES   REMARKS
AMES           PTSUNNY   77  68  73 S5        30.02R
ANKENY *         N/A    N/A N/A N/A MISG        N/A
BOONE *        CLOUDY    75  70  83 S3        30.02R
CHARITON *       N/A    N/A N/A N/A MISG        N/A
DES MOINES     CLOUDY    80  68  66 S8        30.00S HX  83
GRINNELL*      CLOUDY    80  66  62 SE5       30.03R HX  83
KNOXVILLE *    SUNNY     81  68  65 CALM      30.01R HX  83
MARSHALLTOWN   MOSUNNY   81  67  62 S8        30.01S HX  83
NEWTON *       SUNNY     79  68  69 S7        30.02R HX  81
PELLA *        MOSUNNY   82  68  62 S6        30.03R HX  85
PERRY *          N/A     75  71  87 CALM      30.02R
$$

IAZ004>006-015-016-023>025-035-036-271700-
   NORTH CENTRAL IOWA

CITY           SKY/WX    TMP DP  RH WIND       PRES   REMARKS
ALGONA *       CLOUDY    73  68  83 S13       30.00S
ESTHERVILLE    CLOUDY    73  68  84 S9        29.99R
FORT DODGE *   CLOUDY    72  68  88 S6        30.02F
MASON CITY     CLOUDY    76  68  76 S6        30.03R
FOREST CITY *    N/A     73  68  83 S7        30.00F
IOWA FALLS *     N/A     78  68  71 SE6       30.04S HX  80
$$

IAZ007>011-017>019-026>030-037>042-050>054-066-271700-
   NORTHEAST IOWA

CITY           SKY/WX    TMP DP  RH WIND       PRES   REMARKS
CEDAR RAPIDS   MOSUNNY   81  69  67 SE6       30.01S HX  84
CHARLES CITY * CLOUDY    77  70  78 VRB3      30.02R
CLINTON *      PTSUNNY   82  70  66 E5        30.04R HX  86
DECORAH *      MOSUNNY   79  68  69 CALM      30.01F HX  81
DUBUQUE        SUNNY     80  65  59 S3        30.05S HX  82
MONTICELLO *   MOSUNNY   81  70  69 VRB3      30.03S HX  84
OELWEIN *      MOSUNNY   79  68  69 SE5       30.02F HX  81
WATERLOO       CLOUDY    80  66  62 S6        30.00F HX  82
$$

IAZ064-065-067-068-078-271700-
   EAST CENTRAL IOWA

CITY           SKY/WX    TMP DP  RH WIND       PRES   REMARKS
DAVENPORT      SUNNY     81  69  67 NE6       30.03S HX  84
IOWA CITY      MOSUNNY   82  68  62 VRB3      30.02S HX  85
MT. PLEASANT * PTSUNNY   85  73  66 CALM      30.01S HX  92
MUSCATINE *    MOSUNNY   82  70  65 CALM      30.01S HX  86
QUAD CITIES    SUNNY     83  70  64 VRB6      30.01S HX  87
$$

IAZ062-063-075>077-085>089-095>099-271700-
   SOUTHEAST IOWA

CITY           SKY/WX    TMP DP  RH WIND       PRES   REMARKS
BURLINGTON     SUNNY     82  70  66 SE7       30.01F HX  86
FAIRFIELD *    MOSUNNY   81  66  61 E5        30.01S HX  83
KEOKUK *       SUNNY     84  72  65 SE6       30.00F HX  89
OSKALOOSA *      N/A     80  68  67 SE5       30.02R HX  82
CENTERVILLE *    N/A     81  66  61 CALM      30.03R HX  83
OTTUMWA        SUNNY     80  66  62 SE5       30.01R HX  82
WASHINGTON *   MOSUNNY   82  70  65 CALM      30.02S HX  86
$$

ABBREVIATIONS USED IN REMARKS
   TC - TEMPERATURES IN CELSIUS
  WCI - WIND CHILL INDEX
   HX - HEAT INDEX
  VSB - VISIBILITY
$$





USA.gov is the U.S. government's official web portal to all federal, state and local government web resources and services.